Location: Bear Valley Community Church - Hurst
(32.8460°N, 97.1828°W)
Time: 12:47:28
(UTC+00:00)

Cosmos 1515 Rocket - Pass Details

Date: 10 July 2022
Orbit: 604 x 631 km, 82.5° (Epoch: 08 August)

Event Time Altitude Azimuth Distance (km) Brightness Sun altitude
Rises 08:54:12 0° 346° (NNW) 2,877 7.5 -25.6°
Reaches altitude 10° 08:56:30 10° 340° (NNW) 1,965 6.5 -25.3°
Enters shadow 08:59:14 33° 314° (NW) 1,033 4.7 -25.0°
